Other Surface Observations
Issued by NWS Upton, NY

Home | Current Version | Previous Version | Text Only | Print | Product List | Glossary On
Versions: 1 2 3 4 5 6 7 8 9 10 11 12 13 14 15 16 17 18 19 20 21 22 23 24 25 26 27 28 29 30 31 32 33 34 35 36 37 38 39 40 41 42 43 44 45 46 47 48 49 50
000
SXUS51 KOKX 230257
OSOOKX
New York City Metropolitan Area Weather Roundup
National Weather Service New York NY
1100 PM EDT TUE MAY 22 2018

CITY           SKY/WX    TMP DP  RH WIND       PRES   REMARKS
Central Park   CLOUDY    59  57  93 CALM      30.01F FOG
LaGuardia Arpt CLOUDY    58  55  90 E3        29.98F
Kennedy Intl   CLOUDY    57  57 100 CALM      30.00F
Newark Liberty CLOUDY    58  57  97 CALM      29.98F
Teterboro Arpt CLOUDY    59  57  93 CALM      29.97F FOG
Bronx Bot Gard   N/A     55  54  94 CALM      29.99F
Bronx Lehman C   N/A     57  54  88 E3          N/A
Queens College   N/A     57  57 100 SW2         N/A
Breezy Point     N/A     55 N/A N/A NE2         N/A
Brooklyn Coll    N/A     57  55  94 SE3         N/A
Staten Island    N/A     57  55  94 S2          N/A

>>>>>>>>>>>>>>>>>>>>>>>>>>>>>>>>> KEY <<<<<<<<<<<<<<<<<<<<<<<<<<<<<<<
> SKY/WX - Sky Condition/Present    : R : WCI - Wind Chill Index    <
>          Weather                  : E : VSB - Visibility in Miles <
> TMP    - Temperature in Deg F     : M : HX  - Heat Index          <
> DP     - Dew Point Temperature    : A : TC  - Temperature in      <
> RH     - Relative Humidity        : R :       Celsius             <
> WIND   - Direction/Speed (mph)    : K : VRB - Variable Wind Dir   <
> PRES   - Pressure (in Hg)         : S :                           <
>>>>>>>>>>>>>>>>>>>>>>>>>>>>>>>>> KEY <<<<<<<<<<<<<<<<<<<<<<<<<<<<<<<




USA.gov is the U.S. government's official web portal to all federal, state and local government web resources and services.